Previsão horária em Pletenivka

Hoje, 3 Março, Quarta-feira

Tempo Temperatura Precipitação Vento Pressão Humidade
00:00 -2°C° 0.1 mm 6 m/s 745 mmHg 94%
01:00 -2°C° 0.1 mm 6 m/s 746 mmHg 92%
02:00 -2°C° 0 mm 6 m/s 746 mmHg 89%
03:00 -3°C° 0 mm 6 m/s 746 mmHg 89%
04:00 -2°C° 0 mm 5 m/s 747 mmHg 88%
05:00 -4°C° 0 mm 5 m/s 747 mmHg 88%
06:00 -3°C° 0 mm 6 m/s 748 mmHg 85%
07:00 -3°C° 0 mm 6 m/s 748 mmHg 82%
08:00 -3°C° 0 mm 6 m/s 749 mmHg 79%
09:00 -2°C° 0 mm 6 m/s 749 mmHg 74%
10:00 -2°C° 0 mm 7 m/s 750 mmHg 68%
11:00 -1°C° 0 mm 7 m/s 750 mmHg 63%
12:00 -1°C° 0 mm 6 m/s 750 mmHg 62%
13:00 -1°C° 0 mm 6 m/s 751 mmHg 62%
14:00 -1°C° 0 mm 6 m/s 751 mmHg 61%
15:00 -1°C° 0 mm 5 m/s 751 mmHg 66%
16:00 -1°C° 0 mm 4 m/s 751 mmHg 70%
17:00 -1°C° 0 mm 3 m/s 751 mmHg 75%
18:00 -1°C° 0 mm 3 m/s 751 mmHg 79%
19:00 -2°C° 0 mm 4 m/s 751 mmHg 82%
20:00 -3°C° 0 mm 4 m/s 752 mmHg 86%
21:00 -3°C° 0 mm 4 m/s 751 mmHg 87%
22:00 -3°C° 0 mm 4 m/s 751 mmHg 88%
23:00 -4°C° 0 mm 5 m/s 750 mmHg 88%

Amanhã, 4 Março, Quinta-feira

Tempo Temperatura Precipitação Vento Pressão Humidade
00:00 -4°C° 0 mm 5 m/s 750 mmHg 89%
01:00 -4°C° 0 mm 5 m/s 750 mmHg 91%
02:00 -4°C° 0 mm 5 m/s 750 mmHg 92%
03:00 -4°C° 0 mm 5 m/s 749 mmHg 91%
04:00 -4°C° 0 mm 5 m/s 749 mmHg 91%
05:00 -4°C° 0 mm 5 m/s 748 mmHg 91%
06:00 -3°C° 0 mm 6 m/s 748 mmHg 86%
07:00 -3°C° 0 mm 6 m/s 747 mmHg 82%
08:00 -2°C° 0 mm 6 m/s 747 mmHg 78%
09:00 -1°C° 0 mm 7 m/s 746 mmHg 71%
10:00 0°C° 0 mm 7 m/s 746 mmHg 63%
11:00 +2°C° 0 mm 7 m/s 745 mmHg 56%
12:00 +2°C° 0 mm 8 m/s 745 mmHg 58%
13:00 +4°C° 0 mm 8 m/s 744 mmHg 59%
14:00 +5°C° 0 mm 8 m/s 743 mmHg 60%
15:00 +4°C° 0 mm 8 m/s 743 mmHg 64%
16:00 +4°C° 0 mm 7 m/s 742 mmHg 68%
17:00 +3°C° 0 mm 6 m/s 741 mmHg 71%
18:00 +3°C° 0 mm 6 m/s 741 mmHg 74%
19:00 +3°C° 0 mm 6 m/s 741 mmHg 76%
20:00 +2°C° 0 mm 6 m/s 741 mmHg 78%
21:00 +2°C° 0.1 mm 6 m/s 740 mmHg 82%
22:00 +2°C° 0.1 mm 6 m/s 740 mmHg 86%
23:00 +2°C° 0.1 mm 7 m/s 740 mmHg 90%

Depois de amanhã, 5 Março, Sexta-feira

Tempo Temperatura Precipitação Vento Pressão Humidade
00:00 +2°C° 0.1 mm 6 m/s 740 mmHg 90%
01:00 +2°C° 0.1 mm 6 m/s 740 mmHg 89%
02:00 +2°C° 0.1 mm 6 m/s 740 mmHg 89%
03:00 +2°C° 0 mm 6 m/s 740 mmHg 89%
04:00 +1°C° 0 mm 6 m/s 740 mmHg 89%
05:00 +1°C° 0 mm 5 m/s 740 mmHg 89%
06:00 +1°C° 0 mm 5 m/s 740 mmHg 88%
07:00 +1°C° 0 mm 5 m/s 741 mmHg 86%
08:00 +1°C° 0 mm 5 m/s 741 mmHg 84%
09:00 +1°C° 0 mm 5 m/s 741 mmHg 83%
10:00 +1°C° 0 mm 5 m/s 741 mmHg 82%
11:00 +1°C° 0 mm 5 m/s 742 mmHg 82%
12:00 +1°C° 0 mm 4 m/s 742 mmHg 82%
13:00 +2°C° 0 mm 3 m/s 742 mmHg 83%
14:00 +3°C° 0 mm 2 m/s 742 mmHg 84%
15:00 +2°C° 0.6 mm 2 m/s 742 mmHg 88%
16:00 +2°C° 0.6 mm 2 m/s 742 mmHg 92%
17:00 +2°C° 0.6 mm 1 m/s 742 mmHg 96%
18:00 +1°C° 0.7 mm 2 m/s 742 mmHg 96%
19:00 -1°C° 0.7 mm 3 m/s 742 mmHg 96%
20:00 -2°C° 0.7 mm 4 m/s 742 mmHg 96%
21:00 -2°C° 0.5 mm 4 m/s 743 mmHg 95%
22:00 -2°C° 0.5 mm 4 m/s 743 mmHg 94%
23:00 -3°C° 0.5 mm 4 m/s 743 mmHg 93%

6 Março, Sábado

Tempo Temperatura Precipitação Vento Pressão Humidade
00:00 -3°C° 0 mm 4 m/s 744 mmHg 91%
01:00 -4°C° 0 mm 4 m/s 744 mmHg 89%
02:00 -4°C° 0 mm 4 m/s 745 mmHg 87%
03:00 -4°C° 0 mm 4 m/s 745 mmHg 87%
04:00 -5°C° 0 mm 3 m/s 745 mmHg 87%
05:00 -5°C° 0 mm 3 m/s 746 mmHg 86%
06:00 -5°C° 0 mm 3 m/s 746 mmHg 84%
07:00 -4°C° 0 mm 3 m/s 746 mmHg 82%
08:00 -4°C° 0 mm 3 m/s 747 mmHg 79%
09:00 -2°C° 0 mm 3 m/s 747 mmHg 74%
10:00 -1°C° 0 mm 3 m/s 747 mmHg 68%
11:00 -2°C° 0 mm 4 m/s 747 mmHg 63%
12:00 -1°C° 0.1 mm 4 m/s 747 mmHg 60%
13:00 -1°C° 0.1 mm 5 m/s 747 mmHg 57%
14:00 -2°C° 0.1 mm 6 m/s 747 mmHg 53%
15:00 -2°C° 0.1 mm 5 m/s 747 mmHg 54%
16:00 -4°C° 0.1 mm 5 m/s 747 mmHg 54%
17:00 -5°C° 0.1 mm 5 m/s 748 mmHg 55%
18:00 -5°C° 0 mm 6 m/s 748 mmHg 59%
19:00 -6°C° 0 mm 6 m/s 749 mmHg 63%
20:00 -6°C° 0 mm 6 m/s 749 mmHg 66%
21:00 -8°C° 0 mm 6 m/s 750 mmHg 65%
22:00 -8°C° 0 mm 6 m/s 750 mmHg 63%
23:00 -8°C° 0 mm 6 m/s 750 mmHg 61%

7 Março, Domingo

Tempo Temperatura Precipitação Vento Pressão Humidade
00:00 -7°C° 0 mm 5 m/s 750 mmHg 59%
01:00 -8°C° 0 mm 5 m/s 751 mmHg 57%
02:00 -8°C° 0 mm 5 m/s 751 mmHg 55%
03:00 -8°C° 0 mm 4 m/s 751 mmHg 56%
04:00 -8°C° 0 mm 4 m/s 751 mmHg 56%
05:00 -7°C° 0 mm 3 m/s 751 mmHg 57%
06:00 -8°C° 0 mm 4 m/s 750 mmHg 56%
07:00 -7°C° 0 mm 5 m/s 750 mmHg 55%
08:00 -8°C° 0 mm 6 m/s 750 mmHg 54%
09:00 -7°C° 0 mm 7 m/s 749 mmHg 51%
10:00 -6°C° 0 mm 7 m/s 749 mmHg 47%
11:00 -5°C° 0 mm 8 m/s 748 mmHg 44%
12:00 -4°C° 0 mm 9 m/s 747 mmHg 44%
13:00 -4°C° 0 mm 9 m/s 747 mmHg 44%
14:00 -3°C° 0 mm 10 m/s 746 mmHg 43%
15:00 -3°C° 0 mm 9 m/s 745 mmHg 45%
16:00 -4°C° 0 mm 8 m/s 745 mmHg 47%
17:00 -4°C° 0 mm 8 m/s 744 mmHg 49%
18:00 -4°C° 0 mm 8 m/s 744 mmHg 51%
19:00 -4°C° 0 mm 8 m/s 743 mmHg 52%
20:00 -4°C° 0 mm 8 m/s 743 mmHg 54%
21:00 -4°C° 0 mm 8 m/s 743 mmHg 56%
22:00 -5°C° 0 mm 8 m/s 742 mmHg 57%
23:00 -5°C° 0 mm 8 m/s 742 mmHg 59%

8 Março, Segunda-feira

Tempo Temperatura Precipitação Vento Pressão Humidade
00:00 -5°C° 0 mm 8 m/s 742 mmHg 61%
01:00 -4°C° 0 mm 7 m/s 742 mmHg 63%
02:00 -4°C° 0 mm 7 m/s 742 mmHg 64%
03:00 -4°C° 0 mm 7 m/s 742 mmHg 68%
04:00 -4°C° 0 mm 6 m/s 742 mmHg 72%
05:00 -4°C° 0 mm 6 m/s 742 mmHg 75%
06:00 -4°C° 0 mm 6 m/s 742 mmHg 75%
07:00 -4°C° 0 mm 5 m/s 743 mmHg 75%
08:00 -4°C° 0 mm 5 m/s 743 mmHg 75%
09:00 -2°C° 0 mm 5 m/s 743 mmHg 69%
10:00 -1°C° 0 mm 5 m/s 743 mmHg 63%
11:00 -1°C° 0 mm 5 m/s 743 mmHg 57%
12:00 0°C° 0 mm 5 m/s 743 mmHg 57%
13:00 0°C° 0 mm 5 m/s 743 mmHg 56%
14:00 0°C° 0 mm 4 m/s 742 mmHg 56%
15:00 -1°C° 0.1 mm 4 m/s 742 mmHg 69%
16:00 -1°C° 0.1 mm 3 m/s 742 mmHg 83%
17:00 -1°C° 0.1 mm 3 m/s 742 mmHg 96%
18:00 -1°C° 0.5 mm 3 m/s 742 mmHg 96%
19:00 -2°C° 0.5 mm 4 m/s 741 mmHg 95%
20:00 -2°C° 0.5 mm 4 m/s 741 mmHg 95%
21:00 -3°C° 0.3 mm 4 m/s 741 mmHg 95%
22:00 -3°C° 0.3 mm 4 m/s 741 mmHg 95%
23:00 -3°C° 0.3 mm 4 m/s 741 mmHg 95%
Mostrar mais

Necessitamos do seu Consentimento

A Meteoprog e os seus Fornecedores de Serviços podem armazenar e aceder a dados pessoais como cookies, identificadores do dispositivo ou outras tecnologias semelhantes existentes no seu dispositivo e processar estes dados para personalizar conteúdos e anúncios, assim como funcionalidades nas redes sociais e análise de tráfego.

  • Armazenar e/ou aceder a informações no seu dispositivo

    Os cookies, identificadores do dispositivo ou outras informações podem ser armazenados ou acedidos no seu dispositivo, para os fins acima indicados.

  • Anúncios e conteúdos personalizados, medição de anúncios e conteúdos, dados sobre o público-alvo e desenvolvimento de produtos

    Os anúncios e os conteúdos podem ser personalizados com base num perfil. Podem ser adicionados dados adicionais para uma maior personalização dos anúncios e dos conteúdos. A eficácia dos anúncios e dos conteúdos pode ser medida. Podem ser obtidas informações sobre o público que visualizou os anúncios e os conteúdos. Estes dados podem ser usados para desenvolver ou melhorar sistemas, softwares ou a experiência do utilizador.

Ao clicar em "Eu concordo”, permitirá o uso de cookies, identificadores do dispositivo e web beacons mencionados ou outras tecnologias semelhantes. As configurações do navegador do seu dispositivo podem ser alteradas.

Para certos fins, podem ser invocados interesses legítimos ao invés de consentimento. Pode ler mais informação sobre este assunto na nossa Política de Privacidade e Cookies.